Total_Precipitation_Accumulation
0.60 0.55 0.50 0.46 0.40 0.37 0.35 0.37 0.33 0.29 0.28 0.28 0.26 0.21 0.19 0.17 0.17 0.18 0.20 0.20 0.16 0.17 0.25 0.32 0.37 0.40 0.43 0.46 0.46 0.44 0.41 0.39 0.37 0.34 0.32 0.31 0.30 0.30 0.30 0.31 0.32 0.32 0.33
0.69 0.64 0.54 0.50 0.44 0.41 0.39 0.41 0.43 0.37 0.31 0.29 0.28 0.26 0.23 0.20 0.17 0.16 0.17 0.19 0.19 0.20 0.24 0.31 0.39 0.50 0.58 0.62 0.61 0.58 0.53 0.46 0.41 0.39 0.38 0.37 0.35 0.34 0.34 0.35 0.36 0.36 0.37
0.79 0.76 0.68 0.57 0.49 0.50 0.48 0.48 0.49 0.49 0.43 0.34 0.31 0.29 0.27 0.26 0.22 0.19 0.17 0.16 0.16 0.15 0.19 0.29 0.38 0.45 0.53 0.62 0.68 0.69 0.63 0.55 0.47 0.42 0.40 0.41 0.40 0.40 0.40 0.42 0.44 0.44 0.45
0.84 0.86 0.80 0.75 0.67 0.62 0.58 0.56 0.53 0.48 0.44 0.37 0.32 0.30 0.30 0.30 0.27 0.26 0.25 0.19 0.16 0.12 0.14 0.21 0.28 0.34 0.42 0.52 0.63 0.73 0.74 0.67 0.57 0.49 0.49 0.51 0.50 0.49 0.50 0.51 0.52 0.52 0.52
0.99 0.98 0.88 0.88 0.90 0.81 0.70 0.65 0.62 0.54 0.50 0.46 0.42 0.40 0.38 0.34 0.31 0.28 0.25 0.21 0.19 0.18 0.16 0.17 0.21 0.25 0.30 0.40 0.49 0.64 0.77 0.78 0.72 0.65 0.61 0.59 0.60 0.60 0.63 0.66 0.66 0.66 0.68
1.15 1.09 1.04 0.99 1.01 0.96 0.83 0.75 0.68 0.62 0.55 0.56 0.56 0.49 0.43 0.37 0.35 0.33 0.29 0.25 0.23 0.24 0.25 0.25 0.26 0.26 0.28 0.31 0.38 0.49 0.68 0.83 0.84 0.77 0.71 0.68 0.69 0.72 0.76 0.82 0.83 0.85 0.88
1.34 1.21 1.11 1.09 1.10 1.05 0.95 0.90 0.84 0.73 0.67 0.69 0.67 0.54 0.43 0.38 0.33 0.30 0.33 0.33 0.29 0.27 0.27 0.30 0.32 0.31 0.27 0.27 0.30 0.35 0.48 0.70 0.87 0.88 0.83 0.80 0.81 0.86 0.94 1.03 1.05 1.06 1.09
1.47 1.34 1.21 1.17 1.15 1.12 1.03 0.98 1.01 0.97 0.87 0.85 0.84 0.81 0.65 0.50 0.38 0.33 0.34 0.33 0.32 0.31 0.30 0.28 0.29 0.31 0.33 0.30 0.29 0.30 0.33 0.48 0.73 0.93 1.02 1.01 1.01 1.04 1.12 1.24 1.31 1.38 1.43
1.68 1.54 1.38 1.33 1.30 1.30 1.22 1.14 1.11 1.07 1.06 1.02 1.04 1.11 0.95 0.69 0.49 0.39 0.37 0.36 0.36 0.35 0.34 0.34 0.33 0.33 0.35 0.34 0.35 0.35 0.36 0.41 0.64 0.90 1.13 1.23 1.24 1.28 1.44 1.58 1.66 1.76 1.78
1.77 1.77 1.68 1.55 1.45 1.42 1.38 1.44 1.45 1.34 1.26 1.14 1.07 1.03 1.01 0.85 0.79 0.61 0.44 0.41 0.40 0.38 0.37 0.35 0.35 0.35 0.34 0.37 0.40 0.45 0.49 0.53 0.67 0.95 1.23 1.44 1.57 1.71 1.90 2.02 2.12 2.20 2.12
1.62 1.72 1.74 1.66 1.51 1.38 1.31 1.37 1.44 1.47 1.36 1.27 1.19 1.12 1.09 0.97 0.88 0.86 0.65 0.48 0.45 0.43 0.43 0.43 0.45 0.47 0.48 0.49 0.52 0.59 0.67 0.72 0.86 1.09 1.43 1.75 1.98 2.16 2.36 2.50 2.56 2.58 2.52
1.46 1.49 1.56 1.52 1.51 1.43 1.33 1.34 1.42 1.50 1.49 1.43 1.33 1.22 1.16 1.10 0.96 0.97 0.91 0.69 0.61 0.55 0.55 0.57 0.60 0.62 0.62 0.62 0.64 0.74 0.81 0.88 1.00 1.19 1.54 1.91 2.17 2.32 2.47 2.73 2.88 2.87 2.86
1.39 1.43 1.52 1.47 1.47 1.44 1.41 1.39 1.39 1.35 1.39 1.39 1.33 1.27 1.18 1.09 1.03 1.10 1.15 1.00 0.84 0.69 0.68 0.69 0.69 0.71 0.71 0.72 0.74 0.85 0.85 0.90 0.95 1.09 1.40 1.76 1.91 1.96 2.06 2.28 2.52 2.66 2.75
1.27 1.30 1.42 1.44 1.41 1.42 1.40 1.37 1.33 1.28 1.26 1.27 1.25 1.21 1.14 1.05 1.02 1.07 1.18 1.28 1.22 0.99 0.83 0.77 0.77 0.79 0.81 0.81 0.83 0.92 0.81 0.93 0.97 1.04 1.20 1.37 1.40 1.36 1.40 1.58 1.81 2.01 2.17
1.16 1.15 1.18 1.23 1.25 1.25 1.25 1.27 1.23 1.16 1.13 1.11 1.09 1.07 1.03 0.96 0.93 0.96 1.06 1.23 1.45 1.38 1.08 0.86 0.82 0.81 0.84 0.85 0.90 0.84 0.74 0.90 0.96 0.97 1.01 1.06 1.04 1.03 1.07 1.19 1.42 1.64 1.77
0.97 0.98 1.02 1.02 1.04 1.07 1.12 1.17 1.15 1.08 1.07 1.02 1.00 1.00 0.97 0.93 0.93 0.96 1.02 1.11 1.25 1.38 1.24 0.91 0.78 0.73 0.77 0.79 0.87 0.78 0.73 0.90 0.90 0.90 0.91 0.91 0.93 0.97 1.01 1.09 1.21 1.38 1.60
0.79 0.83 0.89 0.94 0.95 0.95 0.95 1.01 1.08 1.08 1.04 1.00 0.96 0.94 0.91 0.89 0.90 0.91 0.96 1.02 1.07 1.16 1.17 0.92 0.76 0.73 0.76 0.76 0.79 0.77 0.73 0.71 0.70 0.80 0.81 0.81 0.83 0.89 0.98 1.04 1.10 1.20 1.38
0.65 0.65 0.68 0.74 0.79 0.81 0.82 0.83 0.87 0.92 0.94 0.93 0.93 0.95 0.95 0.95 0.98 1.00 1.02 1.02 1.01 1.02 1.06 0.97 0.80 0.70 0.66 0.64 0.64 0.67 0.69 0.68 0.64 0.75 0.77 0.75 0.79 0.85 0.94 0.97 0.99 1.07 1.16
0.65 0.68 0.63 0.62 0.65 0.68 0.74 0.75 0.74 0.78 0.82 0.84 0.86 0.90 0.94 0.99 1.04 1.04 1.03 1.01 0.98 0.95 0.95 0.97 0.85 0.71 0.65 0.61 0.63 0.64 0.65 0.65 0.62 0.68 0.72 0.72 0.75 0.79 0.85 0.94 0.98 0.97 1.00
0.60 0.61 0.62 0.61 0.61 0.62 0.68 0.75 0.78 0.78 0.83 0.87 0.88 0.89 0.91 0.93 0.93 0.93 0.91 0.88 0.90 0.90 0.91 0.94 0.90 0.78 0.68 0.63 0.67 0.74 0.73 0.65 0.61 0.56 0.61 0.62 0.65 0.67 0.70 0.77 0.85 0.87 0.89
0.55 0.57 0.60 0.61 0.62 0.64 0.69 0.77 0.83 0.84 0.86 0.91 0.94 0.92 0.88 0.85 0.80 0.78 0.78 0.77 0.77 0.84 0.92 0.97 0.92 0.82 0.71 0.68 0.67 0.66 0.72 0.70 0.64 0.58 0.55 0.54 0.54 0.53 0.55 0.62 0.72 0.85 0.95
0.55 0.59 0.65 0.71 0.74 0.79 0.94 0.97 0.93 0.91 0.90 0.87 0.84 0.80 0.78 0.78 0.75 0.78 0.77 0.77 0.82 0.92 1.02 1.02 0.90 0.75 0.59 0.55 0.60 0.71 0.82 0.87 0.78 0.57 0.56 0.58 0.58 0.60 0.57 0.60 0.75 0.87 1.00
0.66 0.72 0.76 0.86 0.89 0.92 0.97 0.90 0.88 0.84 0.85 0.83 0.76 0.70 0.66 0.62 0.63 0.59 0.66 0.72 0.74 0.80 0.85 0.85 0.79 0.65 0.59 0.58 0.74 0.91 0.90 0.86 0.70 0.52 0.57 0.64 0.60 0.64 0.64 0.70 0.83 0.87 0.99
0.78 0.84 0.84 0.86 0.89 0.89 0.88 0.80 0.78 0.68 0.65 0.64 0.62 0.58 0.53 0.52 0.52 0.56 0.62 0.68 0.61 0.57 0.58 0.56 0.58 0.61 0.63 0.62 0.73 0.88 0.89 0.86 0.72 0.61 0.61 0.71 0.63 0.65 0.64 0.69 0.82 0.82 0.88
0.79 0.82 0.81 0.77 0.71 0.70 0.69 0.62 0.60 0.54 0.52 0.50 0.49 0.51 0.53 0.49 0.55 0.69 0.71 0.69 0.56 0.47 0.48 0.55 0.60 0.60 0.62 0.62 0.65 0.86 1.03 1.09 0.93 0.68 0.60 0.63 0.57 0.59 0.65 0.71 0.79 0.87 0.87
0.64 0.63 0.59 0.56 0.53 0.50 0.51 0.49 0.48 0.41 0.42 0.43 0.45 0.48 0.54 0.52 0.60 0.72 0.66 0.63 0.56 0.47 0.47 0.45 0.44 0.45 0.44 0.48 0.59 0.73 1.10 1.41 1.13 0.82 0.55 0.67 0.69 0.76 0.95 0.73 0.73 0.80 0.84